Regional Weather Roundup
Issued by NWS Goodland, KS

Home | Current Version | Previous Version | Graphics & Text | Print | Product List | Glossary On
Versions: 1 2 3 4 5 6 7 8 9 10 11 12 13 14 15 16 17 18 19 20 21 22 23 24 25 26 27 28 29 30 31 32 33 34 35 36 37 38 39 40 41 42 43 44 45 46 47 48 49 50
000
ASUS43 KGLD 302208
RWRGLD

GOODLAND FORECAST AREA HOURLY WEATHER ROUNDUP
NATIONAL WEATHER SERVICE GOODLAND KS
400 PM MDT WED JUL 30 2014

...OFFICIAL OBSERVATIONS...

CITY           SKY/WX    TMP DP  RH WIND       PRES   REMARKS
GOODLAND KS    CLOUDY    70  55  59 SE3       30.26S
HILL CITY KS   MOSUNNY   78  52  40 NE8       30.17S
IMPERIAL NEB   PTSUNNY   77  54  44 NW7       30.22F
MCCOOK NEB     PTSUNNY   79  56  45 S7        30.18F
AKRON CO       LGT RAIN  61  55  81 SW8       30.32F
BURLINGTON CO  CLOUDY    67  52  58 SE6       30.29S
LIMON CO       LGT RAIN  61  53  75 E9        30.36R
$$

...UNOFFICIAL OBSERVATIONS...

CITY           SKY/WX    TMP DP  RH WIND       PRES   REMARKS
COLBY KS       MOSUNNY   73  59  60 SW3       30.23S
GOVE KS          N/A     73  32  22 MISG        N/A
NORTON KS      MOSUNNY   81  46  30 NE3       30.16S
OBERLIN KS     FAIR      79  50  36 CALM      30.19S
SHARON SPRINGS   N/A     69  58  68 E12         N/A
ST FRANCIS KS  PTSUNNY   72  52  49 SE5       30.24F
TRIBUNE KS     PTSUNNY   66 N/A N/A NE12      30.27
WAKEENEY KS      N/A     78  49  35 MISG        N/A
TRENTON NEB      N/A     79  32  18 SE8         N/A
KIT CARSON CO    N/A     66  55  68 NE5G16      N/A
WRAY CO          N/A     73  55  53 SW6       30.26F
YUMA CO          N/A     66  54  65 CALM        N/A
$$



USA.gov is the U.S. government's official web portal to all federal, state and local government web resources and services.